This demonstration page uses our WeatherBlox Daily Observations layout. Learn more.

Left ArrowRight Arrow

34.02893, -84.19858

Hourly Observations for January 3, 2018

Temp ( °F °C ) Dew Point ( °F °C ) Humidity (%) Winds ( mph kmh ) Pressure ( in mb ) Visibility ( mi km ) Precip ( " mm )
12:53 am 00:53 Clear 26 -3.3 3 -16.1 37 37 Calm 30.40 1029 10 16 0.00 0.00
1:53 am 01:53 Clear 25 -3.9 8 -13.3 48 48 Calm 30.37 1028 10 16 0.00 0.00
2:53 am 02:53 Clear 26 -3.3 5 -15 40 40 NE 5 7 30.35 1028 10 16 0.00 0.00
3:53 am 03:53 Clear 27 -2.8 4 -15.6 37 37 VRB 3 6 30.32 1027 10 16 0.00 0.00
4:53 am 04:53 Clear 26 -3.3 3 -16.1 37 37 VRB 6 9 30.28 1026 10 16 0.00 0.00
5:53 am 05:53 Clear 26 -3.3 2 -16.7 35 35 VRB 5 7 30.27 1025 10 16 0.00 0.00
6:53 am 06:53 Clear 26 -3.3 3 -16.1 37 37 Calm 30.28 1025 10 16 0.00 0.00
7:53 am 07:53 Sunny 26 -3.3 6 -14.4 42 42 Calm 30.31 1027 10 16 0.00 0.00
8:53 am 08:53 Mostly Cloudy 27 -2.8 6 -14.4 41 41 Calm 30.30 1026 10 16 0.00 0.00
9:53 am 09:53 Cloudy 28 -2.2 5 -15 37 37 NNW 3 6 30.29 1026 10 16 0.00 0.00
10:53 am 10:53 Cloudy 31 -0.6 1 -17.2 28 28 Calm 30.27 1025 N/A 0.00 0.00
11:53 am 11:53 Mostly Cloudy 34 1.1 2 -16.7 25 25 undefined N/A 30.23 1024 10 16 0.00 0.00
12:53 pm 12:53 Cloudy 36 2.2 3 -16.1 25 25 WNW 10 17 30.18 1022 10 16 0.00 0.00
1:53 pm 13:53 Cloudy 36 2.2 4 -15.6 26 26 VRB 5 7 30.15 1021 10 16 0.00 0.00
2:53 pm 14:53 Cloudy 36 2.2 3 -16.1 25 25 WNW 7 11 30.12 1020 N/A 0.00 0.00
3:53 pm 15:53 Mostly Cloudy 36 2.2 4 -15.6 26 26 WNW 9 15 30.10 1019 10 16 0.00 0.00
4:53 pm 16:53 Sunny 35 1.7 3 -16.1 26 26 WNW 14 22 30.10 1019 10 16 0.00 0.00
5:53 pm 17:53 Clear 33 0.6 2 -16.7 26 26 WNW 9 15 30.09 1019 10 16 0.00 0.00
6:53 pm 18:53 Clear 31 -0.6 3 -16.1 30 30 WNW 6 9 30.10 1019 10 16 0.00 0.00
7:53 pm 19:53 Clear 30 -1.1 4 -15.6 33 33 W 5 7 30.10 1019 10 16 0.00 0.00
8:53 pm 20:53 Clear 28 -2.2 6 -14.4 39 39 W 8 13 30.10 1019 10 16 0.00 0.00
9:53 pm 21:53 Clear 30 -1.1 7 -13.9 38 38 WNW 12 19 30.08 1019 10 16 0.00 0.00
10:53 pm 22:53 Clear 29 -1.7 7 -13.9 39 39 WNW 13 20 30.08 1019 10 16 0.00 0.00
11:53 pm 23:53 Clear 28 -2.2 7 -13.9 41 41 WNW 9 15 30.07 1018 10 16 0.00 0.00

Powered by AerisWeather